Location: Sternwarte_Laufen
(47.9344°N, 12.9346°E)
Time: 12:16:00
(UTC+02:00)

ISS - Pass Details

Date: 22 May 2018
Orbit: 402 x 407 km, 51.6° (Epoch: 26 May)

Event Time Altitude Azimuth Distance (km) Brightness Sun altitude
Rises 03:04:44 0° 293° (WNW) 2,320 0.0 -16.6°
Reaches altitude 10° 03:06:49 10° 292° (WNW) 1,459 -1.1 -16.5°
Maximum altitude 03:10:05 82° 207° (SSW) 411 -4.0 -16.2°
Drops below altitude 10° 03:13:21 10° 118° (ESE) 1,453 -1.0 -15.9°
Sets 03:15:25 0° 117° (ESE) 2,310 0.1 -15.7°
